Location: Unspecified
(0.0000°N, 0.0000°E)
Time: 23:26:46
(UTC+00:00)

X-37B - Pass Details

Date: 26 October 2020
Orbit: 382 x 392 km, 45.0° (Epoch: 15 October)

Event Time Altitude Azimuth Distance (km) Brightness Sun altitude
Rises 05:13:00 0° 220° (SW) 2,255 4.2 -7.6°
Reaches altitude 10° 05:15:04 10° 218° (SW) 1,402 3.2 -7.1°
Maximum altitude 05:18:13 75° 132° (SE) 399 0.8 -6.3°
Drops below altitude 10° 05:21:22 10° 46° (NE) 1,402 3.9 -5.5°
Sets 05:23:26 0° 45° (NE) 2,255 4.9 -5.0°
